FW1232 Weather Reports


Display with metric or nautical units.
time (UTC)temp
F
wind
direction
speed
MPH
gust
MPH
rain 1hr
in
rain 24hr
in
rain mn
in
humidity
%
barometer
mb
20260906031616 76 138 1.0 3.0 0.00 0.00 0.00 92 1012.7
20260906030106 76 137 1.0 3.0 0.00 0.00 0.00 91 1012.6
20260906024607 76 136 2.0 4.0 0.00 0.00 0.00 90 1012.5
20260906023112 77 140 1.0 3.0 0.00 0.00 0.00 91 1012.3
20260906021607 76 0 0.0 0.0 0.00 0.00 0.00 92 1012.2
20260906020108 76 138 1.0 3.0 0.00 0.00 0.00 91 1012.0
20260906014604 77 138 1.0 8.0 0.00 0.00 0.00 90 1011.9
20260906013110 77 155 2.0 8.0 0.00 0.00 0.00 88 1012.0
20260906011607 78 140 3.0 7.0 0.00 0.00 0.00 85 1011.8
20260906004606 80 279 1.0 3.0 0.00 0.00 0.00 83 1011.6
20260906003101 80 286 1.0 3.0 0.00 0.00 0.00 82 1011.9
20260906001559 81 287 1.0 3.0 0.00 0.00 0.00 81 1011.8
20260906000108 81 0 1.0 3.0 0.00 0.00 0.00 80 1012.0
20260905234607 81 0 0.0 4.0 0.00 0.00 0.00 77 1012.2
20260905233103 82 202 2.0 4.0 0.00 0.00 0.00 74 1012.5
20260905231559 82 199 3.0 14.0 0.00 0.00 0.00 74 1012.1
20260905230103 82 355 14.0 26.0 0.00 0.00 0.00 72 1012.0
20260905224608 86 355 20.0 29.0 0.00 0.00 0.00 69 1012.3
20260905223100 95 0 0.0 3.0 0.00 0.00 0.00 58 1011.6
20260905221604 94 0 1.0 3.0 0.00 0.00 0.00 61 1011.4
20260905220105 93 212 2.0 5.0 0.00 0.00 0.00 61 1011.5
20260905214600 94 264 2.0 4.0 0.00 0.00 0.00 64 1011.2
20260905213102 93 269 3.0 7.0 0.00 0.00 0.00 65 1011.4
20260905211611 94 223 3.0 8.0 0.00 0.00 0.00 61 1011.4
20260905210107 95 250 3.0 6.0 0.00 0.00 0.00 59 1011.5
20260905204611 96 254 2.0 4.0 0.00 0.00 0.00 58 1011.7
20260905203126 95 221 2.0 6.0 0.00 0.00 0.00 59 1011.8
20260905201609 95 238 1.0 4.0 0.00 0.00 0.00 61 1011.9
20260905200119 95 256 1.0 4.0 0.00 0.00 0.00 58 1012.4
20260905194605 95 261 2.0 6.0 0.00 0.00 0.00 60 1012.6
20260905193103 94 236 2.0 6.0 0.00 0.00 0.00 64 1012.8
20260905191605 92 261 2.0 6.0 0.00 0.00 0.00 66 1013.0
20260905190101 91 268 2.0 5.0 0.00 0.00 0.00 65 1013.2
20260905184606 89 36 4.0 9.0 0.00 0.00 0.00 70 1013.4
20260905183104 89 56 1.0 11.0 0.00 0.00 0.00 68 1013.6
20260905181602 89 57 3.0 7.0 0.00 0.00 0.00 68 1013.8
20260905180105 88 5 1.0 4.0 0.00 0.00 0.00 71 1013.9
20260905174607 86 13 3.0 9.0 0.00 0.00 0.00 73 1014.3
20260905173105 86 39 6.0 13.0 0.00 0.00 0.00 75 1014.4
20260905171601 85 29 8.0 12.0 0.00 0.00 0.00 76 1014.7
20260905170118 85 39 6.0 14.0 0.00 0.00 0.00 77 1014.7
20260905164605 85 105 2.0 10.0 0.00 0.00 0.00 79 1014.8
20260905163104 84 42 4.0 12.0 0.00 0.00 0.00 80 1015.0
20260905161617 84 35 5.0 11.0 0.00 0.00 0.00 80 1015.2
20260905160104 83 31 10.0 14.0 0.00 0.00 0.00 80 1015.4
20260905154626 83 34 10.0 16.0 0.00 0.00 0.00 81 1015.1
20260905153108 82 30 10.0 16.0 0.00 0.00 0.00 83 1015.2
20260905151632 82 33 10.0 15.0 0.00 0.00 0.00 82 1015.5
20260905150107 82 34 10.0 18.0 0.00 0.00 0.00 85 1015.7
20260905144611 82 24 14.0 19.0 0.00 0.00 0.00 84 1015.7
20260905143102 84 338 2.0 4.0 0.00 0.00 0.00 85 1015.6
20260905141606 85 0 0.0 2.0 0.00 0.00 0.00 84 1015.0
20260905140109 83 0 0.0 3.0 0.00 0.00 0.00 87 1015.0
20260905134603 82 118 1.0 3.0 0.00 0.00 0.00 88 1015.0
20260905133105 80 117 0.0 4.0 0.00 0.00 0.00 90 1014.9
20260905131608 79 115 1.0 4.0 0.00 0.00 0.00 91 1015.2
20260905130104 78 114 2.0 6.0 0.00 0.00 0.00 92 1015.2
20260905124603 77 110 3.0 4.0 0.00 0.00 0.00 93 1015.3
20260905123106 77 74 1.0 3.0 0.00 0.00 0.00 94 1015.1
20260905121602 77 72 1.0 3.0 0.00 0.00 0.00 94 1015.0
20260905120100 76 70 1.0 2.0 0.00 0.00 0.00 97 1014.8
20260905114600 76 69 1.0 3.0 0.00 0.00 0.00 98 1014.7
20260905113105 76 0 0.0 3.0 0.00 0.00 0.00 98 1014.6
20260905111600 76 67 0.0 3.0 0.00 0.00 0.00 98 1014.6
20260905110111 76 67 1.0 3.0 0.00 0.00 0.00 98 1014.5
20260905104559 76 66 2.0 4.0 0.00 0.00 0.00 97 1014.3
20260905103102 76 49 1.0 3.0 0.00 0.00 0.00 97 1014.3
20260905101610 76 47 2.0 5.0 0.00 0.00 0.00 97 1014.2
20260905100101 76 0 0.0 2.0 0.00 0.00 0.00 94 1014.0
20260905094600 76 130 1.0 4.0 0.00 0.00 0.00 93 1013.9
20260905093126 76 130 1.0 3.0 0.00 0.00 0.00 94 1013.8
20260905091607 76 132 0.0 3.0 0.00 0.00 0.00 95 1013.6
20260905090103 76 132 1.0 3.0 0.00 0.00 0.00 94 1013.7
20260905084602 76 132 2.0 3.0 0.00 0.00 0.00 93 1013.7
20260905083111 76 132 2.0 4.0 0.00 0.00 0.00 94 1013.6
20260905081559 77 132 2.0 3.0 0.00 0.00 0.00 94 1013.5
20260905080106 77 132 1.0 2.0 0.00 0.00 0.00 95 1013.8
20260905074600 77 132 0.0 2.0 0.00 0.00 0.00 94 1014.0
20260905073102 77 133 1.0 3.0 0.00 0.00 0.00 93 1014.2
20260905071601 77 133 1.0 2.0 0.00 0.00 0.00 93 1014.3
20260905070117 78 133 2.0 3.0 0.00 0.00 0.00 95 1014.4
20260905064600 78 134 1.0 3.0 0.00 0.00 0.00 94 1014.5
20260905063102 78 0 0.0 2.0 0.00 0.00 0.00 94 1014.8
20260905061608 79 133 1.0 4.0 0.00 0.00 0.00 94 1014.8
20260905060100 79 0 0.0 0.0 0.00 0.00 0.00 93 1014.9
20260905054558 79 0 0.0 2.0 0.00 0.00 0.00 92 1015.0
20260905053103 79 144 1.0 3.0 0.00 0.00 0.00 93 1015.2
20260905051609 79 145 1.0 3.0 0.00 0.00 0.00 92 1015.0
20260905050107 80 145 0.0 2.0 0.00 0.00 0.00 92 1015.1
20260905044616 81 145 1.0 3.0 0.00 0.00 0.00 91 1015.1
20260905043101 81 149 1.0 3.0 0.00 0.00 0.00 90 1015.0
20260905041600 81 0 0.0 2.0 0.00 0.00 0.00 89 1015.0
20260905040103 82 149 1.0 3.0 0.00 0.00 0.00 88 1014.9
20260905034613 82 149 2.0 3.0 0.00 0.00 0.00 88 1014.9
20260905033106 82 150 1.0 5.0 0.00 0.00 0.00 85 1015.0